Actual water levels and discharges of Vltava river

Vraňany

Date and time (UTC) H (cm) Q (m³/s)
6. 12. 2022 05:20 67 111
6. 12. 2022 05:00 67 111
6. 12. 2022 04:00 67 111
6. 12. 2022 03:00 66 110
6. 12. 2022 02:00 59 103
6. 12. 2022 01:00 57 101
6. 12. 2022 00:00 62 106
5. 12. 2022 23:00 74 119
5. 12. 2022 22:00 77 122
5. 12. 2022 21:00 77 122
5. 12. 2022 20:00 75 120
5. 12. 2022 19:00 69 113
5. 12. 2022 18:00 62 106
5. 12. 2022 17:00 70 115

H - water level, Q - discharge

Praha-Chuchle

Date and time (UTC) H (cm) Q (m³/s)
6. 12. 2022 05:20 64 113
6. 12. 2022 05:00 64 113
6. 12. 2022 04:00 64 113
6. 12. 2022 03:00 64 113
6. 12. 2022 02:00 64 113
6. 12. 2022 01:00 64 113
6. 12. 2022 00:00 63 109
5. 12. 2022 23:00 63 109
5. 12. 2022 22:00 63 109
5. 12. 2022 21:00 63 109
5. 12. 2022 20:00 63 109
5. 12. 2022 19:00 63 109
5. 12. 2022 18:00 63 109
5. 12. 2022 17:00 63 109

H - water level, Q - discharge
more information

VD Vrané nad Vltavou

Date and time (UTC) H (m n. m.) Q (m³/s)
6. 12. 2022 05:30 199.27 79.7
6. 12. 2022 05:00 199.33 80
6. 12. 2022 04:00 199.47 80
6. 12. 2022 03:00 199.60 80
6. 12. 2022 02:00 199.71 80
6. 12. 2022 01:00 199.84 80
6. 12. 2022 00:00 199.92 80
5. 12. 2022 23:00 199.96 80
5. 12. 2022 22:00 200.01 80
5. 12. 2022 21:00 199.99 80
5. 12. 2022 20:00 199.92 80
5. 12. 2022 19:00 199.82 80
5. 12. 2022 18:00 199.66 80
5. 12. 2022 17:00 199.47 80

H - water level, Q - outflow

VD Štěchovice

Date and time (UTC) H (m n. m.) Q (m³/s)
6. 12. 2022 05:30 215.82 81.6
6. 12. 2022 05:00 215.83 39
6. 12. 2022 04:00 215.86 0
6. 12. 2022 03:00 215.85 0
6. 12. 2022 02:00 215.85 0
6. 12. 2022 01:00 215.87 50
6. 12. 2022 00:00 216.05 25
5. 12. 2022 23:00 216.14 25
5. 12. 2022 22:00 216.27 82
5. 12. 2022 21:00 216.60 83
5. 12. 2022 20:00 216.94 90
5. 12. 2022 19:00 217.29 110
5. 12. 2022 18:00 217.16 146
5. 12. 2022 17:00 216.85 155

H - water level, Q - outflow

VD Slapy

Date and time (UTC) H (m n. m.) Q (m³/s)
6. 12. 2022 05:30 267.4 65.8
6. 12. 2022 05:00 267.40 13
6. 12. 2022 04:00 267.40 0
6. 12. 2022 03:00 267.41 0
6. 12. 2022 02:00 267.40 0
6. 12. 2022 01:00 267.40 0
6. 12. 2022 00:00 267.39 0
5. 12. 2022 23:00 267.39 0
5. 12. 2022 22:00 267.40 0
5. 12. 2022 21:00 267.38 0
5. 12. 2022 20:00 267.41 0
5. 12. 2022 19:00 267.39 144
5. 12. 2022 18:00 267.46 209
5. 12. 2022 17:00 267.47 213

H - water level, Q - outflow

VD Kamýk

Date and time (UTC) H (m n. m.) Q (m³/s)
6. 12. 2022 05:30 282.62 -
6. 12. 2022 05:00 282.63 -
6. 12. 2022 04:00 282.64 -
6. 12. 2022 03:00 282.61 -
6. 12. 2022 02:00 282.61 -
6. 12. 2022 01:00 282.62 -
6. 12. 2022 00:00 282.62 -
5. 12. 2022 23:00 282.61 -
5. 12. 2022 22:00 282.59 -
5. 12. 2022 21:00 282.58 -
5. 12. 2022 20:00 282.62 -
5. 12. 2022 19:00 282.61 -
5. 12. 2022 18:00 282.60 -
5. 12. 2022 17:00 282.57 -

H - water level, Q - outflow

VD Orlík

Date and time (UTC) H (m n. m.) Q (m³/s)
6. 12. 2022 05:30 338.65 0
6. 12. 2022 05:00 338.65 0
6. 12. 2022 04:00 338.63 0
6. 12. 2022 03:00 338.62 0
6. 12. 2022 02:00 338.61 0
6. 12. 2022 01:00 338.60 0
6. 12. 2022 00:00 338.59 0
5. 12. 2022 23:00 338.58 0
5. 12. 2022 22:00 338.57 0
5. 12. 2022 21:00 338.55 0
5. 12. 2022 20:00 338.54 0
5. 12. 2022 19:00 338.53 0
5. 12. 2022 18:00 338.51 0
5. 12. 2022 17:00 338.50 0

H - water level, Q - outflow

VD Kořensko

Date and time (UTC) H (m n. m.) Q (m³/s)
6. 12. 2022 05:30 352.54 28.1
6. 12. 2022 05:00 352.54 28
6. 12. 2022 04:00 352.54 28
6. 12. 2022 03:00 352.54 28
6. 12. 2022 02:00 352.55 26
6. 12. 2022 01:00 352.54 23
6. 12. 2022 00:00 352.53 23
5. 12. 2022 23:00 352.52 23
5. 12. 2022 22:00 352.52 23
5. 12. 2022 21:00 352.51 23
5. 12. 2022 20:00 352.50 27
5. 12. 2022 19:00 352.51 29
5. 12. 2022 18:00 352.52 41
5. 12. 2022 17:00 352.53 58

H - water level, Q - outflow

VD Hněvkovice I - přehrada

Date and time (UTC) H (m n. m.) Q (m³/s)
- - -

H - water level, Q - outflow

České Budějovice

Date and time (UTC) H (cm) Q (m³/s)
6. 12. 2022 05:20 104 22.5
6. 12. 2022 05:00 104 22
6. 12. 2022 04:00 104 23
6. 12. 2022 03:00 104 23
6. 12. 2022 02:00 104 23
6. 12. 2022 01:00 104 22
6. 12. 2022 00:00 103 20
5. 12. 2022 23:00 102 17
5. 12. 2022 22:00 102 18
5. 12. 2022 21:00 101 17
5. 12. 2022 20:00 102 18
5. 12. 2022 19:00 102 18
5. 12. 2022 18:00 102 18
5. 12. 2022 17:00 102 18

H - water level, Q - discharge
more information

Vyšší Brod

Date and time (UTC) H (cm) Q (m³/s)
6. 12. 2022 05:20 81 9.1
6. 12. 2022 05:00 81 9
6. 12. 2022 04:00 81 9
6. 12. 2022 03:00 81 9
6. 12. 2022 02:00 81 9
6. 12. 2022 01:00 81 9
6. 12. 2022 00:00 81 9
5. 12. 2022 23:00 81 9
5. 12. 2022 22:00 81 9
5. 12. 2022 21:00 81 9
5. 12. 2022 20:00 82 9
5. 12. 2022 19:00 82 9
5. 12. 2022 18:00 83 10
5. 12. 2022 17:00 84 10

H - water level, Q - discharge
Source data
Labe Basin Vltava Basin Povodí Moravy ČHMÚ